McGrath, AK

4:15 AM AKST on December 04, 2016 (GMT -0900)
McGrath

Weather History for PAMC - November, 2011

Change the Weather History Date:

Monday, November 28, 2011

  Actual Average Record
Temperature  
Mean Temperature -16 °F 1 °F  
Max Temperature -10 °F 9 °F 45 °F (1983)
Min Temperature -21 °F -8 °F -40 °F (1990)
Degree Days  
Heating Degree Days 81 64  
Month to date heating degree days 1982 1654  
Since 1 July heating degree days 4156 3994  
Cooling Degree Days 0 0  
Month to date cooling degree days 0 0  
Year to date cooling degree days 6 20  
Moisture  
Dew Point -20 °F    
Average Humidity 0    
Maximum Humidity 0    
Minimum Humidity 0    
Precipitation  
Precipitation T in 0.05 in 0.35 in (1961)
Month to date precipitation 1.89 1.33  
Year to date precipitation 15.16 16.63  
Snow  
Snow T in 0.60 in 6.10 in (1961)
Month to date snowfall 21.0 18.0  
Since 1 July snowfall 36.5 29.7  
Since 1 September snowfall 36.5 29.7  
Snow Depth 20.00 in    
Sea Level Pressure  
Sea Level Pressure 29.63 in    
Wind  
Wind Speed 0 mph (North)    
Max Wind Speed 3 mph    
Max Gust Speed 6 mph    
Visibility 6 miles    
Events Snow    
T = Trace of Precipitation, MM = Missing Value Source: NWS Daily Summary

Daily Weather History Graph

Daily Weather History Graph

Search for Another Location

Airport or City:

Trip Planner

Search our weather history database for the weather conditions in past years. The results will help you decide how hot, cold, wet, or windy it might be!

Date:

Astronomy

Nov. 28, 2011 Rise Set
Actual Time 10:18 AM AKST 4:02 PM AKST
Civil Twilight 9:15 AM AKST 5:05 PM AKST
Nautical Twilight 8:13 AM AKST 6:06 PM AKST
Astronomical Twilight 7:18 AM AKST 7:01 PM AKST
Moon 1:15 PM AKST (11/28) 8:26 PM AKST (11/28)
Length of Visible Light 7h 49m
Length of Day
5h 43m
Waxing Crescent, 17% of the Moon is Illuminated
Nov 28
Waxing Crescent
Dec 2
First Quarter
Dec 10
Full
Dec 17
Last Quarter
Dec 24
New

Hourly Weather History & Observations

Time (AKST) Temp. Dew Point Humidity Pressure Visibility Wind Dir Wind Speed Gust Speed Precip Events Conditions
12:53 AM -20.9 °F -27.9 °F 70% 29.55 in 10.0 mi Calm Calm - N/A   Overcast
1:53 AM -20.0 °F -27.9 °F 67% 29.54 in 10.0 mi Calm Calm - N/A   Overcast
3:53 AM -17.0 °F -24.0 °F 70% 29.53 in 9.0 mi Calm Calm - N/A   Overcast
4:53 AM -18.0 °F -25.1 °F 70% 29.53 in 10.0 mi Calm Calm - N/A   Overcast
5:30 AM -18.4 °F -25.6 °F 70% 29.47 in 6.0 mi Calm Calm - N/A   Overcast
5:53 AM -17.0 °F -24.0 °F 70% 29.52 in 9.0 mi Calm Calm - N/A   Overcast
6:00 AM -16.6 °F -23.8 °F 70% 29.48 in 8.0 mi Calm Calm - N/A   Overcast
6:53 AM -18.0 °F -25.1 °F 70% 29.53 in 10.0 mi Calm Calm - 0.00 in   Mostly Cloudy
7:53 AM -17.0 °F -23.1 °F 74% 29.55 in 5.0 mi Calm Calm - 0.00 in Snow Light Snow
9:53 AM -14.1 °F -20.0 °F 75% 29.58 in 5.0 mi Calm Calm - 0.00 in Snow Light Snow
10:53 AM -14.1 °F -18.9 °F 79% 29.59 in 3.0 mi Calm Calm - 0.00 in Snow Light Snow
11:53 AM -11.9 °F -18.0 °F 74% 29.60 in 2.0 mi Calm Calm - 0.00 in Snow Light Snow
12:03 PM -11.2 °F -18.4 °F 70% 29.56 in 1.8 mi Calm Calm - 0.00 in Snow Light Snow
12:25 PM -11.2 °F -18.4 °F 70% 29.56 in 2.5 mi Calm Calm - 0.00 in Snow Light Snow
12:32 PM -11.2 °F -16.6 °F 77% 29.56 in 4.0 mi Calm Calm - 0.00 in Snow Light Snow
12:53 PM -11.0 °F -18.0 °F 71% 29.62 in 2.5 mi Calm Calm - 0.00 in Snow Light Snow
1:05 PM -11.2 °F -18.4 °F 70% 29.58 in 3.0 mi Calm Calm - 0.00 in Snow Light Snow
1:53 PM -11.0 °F -18.0 °F 71% 29.63 in 10.0 mi Calm Calm - 0.00 in   Overcast
2:53 PM -9.9 °F -17.0 °F 71% 29.64 in 8.0 mi Calm Calm - 0.00 in Snow Light Snow
3:08 PM -9.4 °F -16.6 °F 71% 29.60 in 2.0 mi Calm Calm - 0.00 in Snow Light Snow
3:18 PM -9.4 °F -16.6 °F 71% 29.60 in 5.0 mi Calm Calm - 0.00 in Snow Light Snow
3:53 PM -9.9 °F -16.1 °F 74% 29.66 in 8.0 mi Calm Calm - 0.00 in   Overcast
4:53 PM -11.0 °F -16.1 °F 78% 29.68 in 8.0 mi Calm Calm - 0.00 in   Overcast
5:53 PM -13.0 °F -18.9 °F 75% 29.70 in 10.0 mi Calm Calm - 0.00 in   Overcast
6:25 PM -13.0 °F -18.4 °F 77% 29.67 in 3.0 mi Calm Calm - 0.00 in Snow Light Snow
6:53 PM -14.1 °F -18.9 °F 79% 29.72 in 10.0 mi Calm Calm - 0.00 in   Overcast
7:32 PM -11.2 °F -16.6 °F 77% 29.69 in 5.0 mi Calm Calm - 0.00 in Snow Light Snow
7:37 PM -11.2 °F -16.6 °F 77% 29.69 in 1.8 mi Calm Calm - 0.00 in Snow Light Snow
7:51 PM -11.2 °F -16.6 °F 77% 29.69 in 3.0 mi Calm Calm - 0.00 in Snow Light Snow
7:53 PM -11.9 °F -17.0 °F 78% 29.74 in 4.0 mi Calm Calm - 0.00 in Snow Light Snow
8:10 PM -13.0 °F -18.4 °F 77% 29.70 in 4.0 mi Calm Calm - 0.00 in Snow Light Snow
8:44 PM -14.8 °F -20.2 °F 77% 29.72 in 10.0 mi Calm Calm - 0.00 in   Overcast
8:53 PM -15.0 °F -20.9 °F 75% 29.77 in 10.0 mi Calm Calm - 0.00 in   Mostly Cloudy
9:53 PM -18.0 °F -23.1 °F 78% 29.80 in 10.0 mi Calm Calm - N/A   Partly Cloudy
10:53 PM -18.9 °F -25.1 °F 74% 29.83 in 10.0 mi Calm Calm - N/A   Overcast
11:53 PM -20.0 °F -26.0 °F 74% 29.85 in 10.0 mi Calm Calm - N/A   Partly Cloudy